sat.trackr.live / text

‹ back to catalog

STARLINK-6145

NORAD 56389 · 2023-061R

PAYLOAD ACTIVE UNKNOWN

§ Identity

Operator
Country
US
Launch date
2023-05-04
Launch site
AFETR
Launch vehicle
Mass (kg)
RCS (m²)

Purposes: comms

External: N2YO · Heavens-Above · Gunter

§ Orbital elements

Epoch: 2026-05-25T05:35:50.881056Z

Period
94.27 min
Inclination
43.0016°
Eccentricity
0.0001256
Mean motion
15.27579156 rev/d
Perigee alt
482.2 km
Apogee alt
483.9 km
Semi-major
6,861.2 km
B*
2.7736e-5
RAAN
125.8170°
Arg perigee
263.4939°
Mean anomaly
96.5769°
Rev number
16,845

§ Raw data

STARLINK-61451 56389U 23061R   26145.23322779  .00000501  00000+0  27736-4 0  99902 56389  43.0016 125.8170 0001256 263.4939  96.5769 15.27579156168455

JSON: /api/v1/satellites/56389 · /tle

For live sub-satellite position, see the globe view (requires WebGL).

§ Visibility from observer

Set your observer location to see the next 7 days of passes ≥ 10°. The values pass through the URL so the page stays shareable.

No JS? Fill the form by hand. The geolocation button needs JavaScript.